TimeCDT,TemperatureF,Dew PointF,Humidity,Sea Level PressureIn,VisibilityMPH,Wind Direction,Wind SpeedMPH,Gust SpeedMPH,PrecipitationIn,Events,Conditions,WindDirDegrees,DateUTC
12:15 AM,34.7,33.8,97,29.79,5.0,WSW,4.6,-,N/A,,Overcast,240,2013-03-31 05:15:00
12:35 AM,34.5,33.3,95,29.79,5.0,West,4.6,-,N/A,,Overcast,260,2013-03-31 05:35:00
12:55 AM,34.0,33.1,96,29.78,4.0,WSW,3.5,-,N/A,,Overcast,250,2013-03-31 05:55:00
1:15 AM,33.8,33.1,97,29.78,3.0,WSW,5.8,-,N/A,,Overcast,240,2013-03-31 06:15:00
1:35 AM,33.4,32.9,98,29.78,2.0,West,3.5,-,N/A,,Overcast,260,2013-03-31 06:35:00
1:55 AM,33.1,32.9,99,29.76,0.8,SW,4.6,-,N/A,,Overcast,230,2013-03-31 06:55:00
2:15 AM,33.1,32.9,99,29.76,0.5,SW,3.5,-,N/A,Fog,Fog,230,2013-03-31 07:15:00
2:35 AM,33.1,32.9,99,29.75,0.5,SW,4.6,-,N/A,Fog,Fog,230,2013-03-31 07:35:00
2:55 AM,33.4,33.3,99,29.74,0.8,WSW,5.8,-,N/A,,Overcast,240,2013-03-31 07:55:00
3:15 AM,34.0,34.0,100,29.74,0.5,WSW,8.1,-,N/A,Fog,Fog,250,2013-03-31 08:15:00
3:35 AM,33.8,33.8,100,29.74,0.5,West,6.9,-,N/A,Fog,Fog,270,2013-03-31 08:35:00
3:55 AM,33.4,33.4,100,29.73,0.5,West,6.9,-,N/A,Fog,Fog,270,2013-03-31 08:55:00
4:15 AM,33.4,33.4,100,29.72,0.8,West,4.6,-,N/A,,Overcast,270,2013-03-31 09:15:00
4:35 AM,33.1,33.1,100,29.72,1.2,West,8.1,-,N/A,,Overcast,270,2013-03-31 09:35:00
4:55 AM,32.9,32.9,100,29.72,2.5,West,6.9,-,N/A,,Overcast,270,2013-03-31 09:55:00
5:15 AM,32.5,32.4,99,29.71,2.5,West,6.9,-,N/A,,Overcast,270,2013-03-31 10:15:00
5:35 AM,32.2,32.0,99,29.72,2.5,West,9.2,-,N/A,,Overcast,270,2013-03-31 10:35:00
5:55 AM,32.0,32.0,100,29.71,2.5,West,9.2,-,N/A,,Overcast,260,2013-03-31 10:55:00
6:15 AM,32.0,32.0,100,29.71,3.0,West,4.6,-,N/A,,Overcast,260,2013-03-31 11:15:00
6:35 AM,32.0,31.8,99,29.70,3.0,West,4.6,-,N/A,,Overcast,260,2013-03-31 11:35:00
6:55 AM,32.0,31.8,99,29.71,1.8,West,9.2,16.1,N/A,,Overcast,280,2013-03-31 11:55:00
7:15 AM,32.0,31.5,98,29.71,2.5,West,9.2,18.4,N/A,,Overcast,270,2013-03-31 12:15:00
7:35 AM,32.0,31.1,96,29.71,2.5,West,6.9,-,N/A,,Overcast,270,2013-03-31 12:35:00
7:55 AM,32.0,30.9,96,29.71,3.0,West,8.1,-,N/A,,Overcast,270,2013-03-31 12:55:00
8:15 AM,32.0,30.7,95,29.70,3.0,West,5.8,-,N/A,,Overcast,260,2013-03-31 13:15:00
8:35 AM,32.0,30.6,94,29.70,3.0,West,9.2,-,N/A,,Overcast,270,2013-03-31 13:35:00
8:55 AM,32.4,30.2,92,29.69,4.0,West,11.5,16.1,N/A,,Overcast,260,2013-03-31 13:55:00
9:15 AM,32.9,30.0,89,29.70,5.0,West,6.9,18.4,N/A,,Overcast,280,2013-03-31 14:15:00
9:35 AM,33.4,29.7,86,29.69,5.0,West,8.1,-,N/A,,Mostly Cloudy,260,2013-03-31 14:35:00
9:55 AM,34.2,29.3,82,29.69,7.0,West,9.2,17.3,N/A,,Scattered Clouds,270,2013-03-31 14:55:00
10:15 AM,35.4,28.4,76,29.68,7.0,West,8.1,-,N/A,,Scattered Clouds,260,2013-03-31 15:15:00
10:35 AM,36.1,28.8,75,29.68,10.0,WSW,10.4,16.1,N/A,,Scattered Clouds,250,2013-03-31 15:35:00
10:55 AM,36.7,28.6,72,29.68,10.0,West,8.1,-,N/A,,Clear,270,2013-03-31 15:55:00
11:15 AM,36.9,28.6,72,29.69,10.0,WNW,15.0,20.7,N/A,,Scattered Clouds,290,2013-03-31 16:15:00
11:35 AM,36.1,28.0,72,29.69,10.0,West,11.5,19.6,N/A,,Mostly Cloudy,280,2013-03-31 16:35:00
11:55 AM,35.2,27.3,73,29.69,10.0,WNW,10.4,24.2,N/A,,Overcast,290,2013-03-31 16:55:00
12:15 PM,34.9,27.3,74,29.70,10.0,West,16.1,21.9,N/A,,Overcast,270,2013-03-31 17:15:00
12:35 PM,33.3,27.5,79,29.70,7.0,West,13.8,25.3,N/A,,Overcast,270,2013-03-31 17:35:00
12:55 PM,33.3,27.7,80,29.70,7.0,West,17.3,24.2,N/A,,Overcast,270,2013-03-31 17:55:00
1:15 PM,33.4,27.7,79,29.71,5.0,West,10.4,21.9,N/A,,Haze,270,2013-03-31 18:15:00
1:35 PM,33.1,28.4,83,29.71,4.0,West,11.5,16.1,N/A,,Haze,260,2013-03-31 18:35:00
1:55 PM,33.4,28.9,84,29.71,5.0,West,11.5,17.3,N/A,,Haze,260,2013-03-31 18:55:00
2:15 PM,33.1,29.5,87,29.71,5.0,West,8.1,17.3,N/A,Snow,Light Snow,270,2013-03-31 19:15:00
2:35 PM,34.9,28.8,78,29.70,7.0,West,13.8,19.6,N/A,,Overcast,260,2013-03-31 19:35:00
2:55 PM,36.0,27.3,71,29.69,10.0,West,12.7,19.6,N/A,,Overcast,270,2013-03-31 19:55:00
3:15 PM,36.0,25.3,65,29.70,10.0,West,8.1,24.2,N/A,,Overcast,270,2013-03-31 20:15:00
3:35 PM,31.8,30.2,94,29.72,0.5,WNW,8.1,17.3,N/A,Rain,Freezing Rain,290,2013-03-31 20:35:00
3:55 PM,32.4,28.4,85,29.71,10.0,West,9.2,-,N/A,,Mostly Cloudy,280,2013-03-31 20:55:00
4:15 PM,34.2,27.1,75,29.71,10.0,WNW,9.2,20.7,N/A,,Scattered Clouds,300,2013-03-31 21:15:00
4:35 PM,34.0,24.8,69,29.72,7.0,NW,13.8,26.5,N/A,,Mostly Cloudy,310,2013-03-31 21:35:00
4:55 PM,35.8,24.3,63,29.72,10.0,WNW,12.7,19.6,N/A,,Mostly Cloudy,290,2013-03-31 21:55:00
5:15 PM,35.6,20.1,53,29.72,10.0,WNW,9.2,20.7,N/A,,Scattered Clouds,290,2013-03-31 22:15:00
5:35 PM,35.2,14.7,43,29.74,10.0,NW,12.7,24.2,N/A,,Clear,310,2013-03-31 22:35:00
5:55 PM,34.9,12.9,40,29.75,10.0,NW,13.8,26.5,N/A,,Scattered Clouds,320,2013-03-31 22:55:00
6:15 PM,35.2,11.7,38,29.76,10.0,NW,11.5,25.3,N/A,,Mostly Cloudy,320,2013-03-31 23:15:00
6:35 PM,34.9,11.5,38,29.77,10.0,WNW,18.4,25.3,N/A,,Overcast,300,2013-03-31 23:35:00
6:55 PM,33.8,10.4,38,29.78,10.0,NW,16.1,21.9,N/A,,Mostly Cloudy,320,2013-03-31 23:55:00
7:15 PM,33.1,10.4,39,29.79,10.0,WNW,12.7,18.4,N/A,,Mostly Cloudy,300,2013-04-01 00:15:00
7:35 PM,32.2,11.1,42,29.80,10.0,NW,12.7,20.7,N/A,,Scattered Clouds,320,2013-04-01 00:35:00
7:55 PM,32.0,11.8,43,29.81,10.0,NW,6.9,16.1,N/A,,Mostly Cloudy,320,2013-04-01 00:55:00
8:15 PM,31.6,12.7,46,29.83,10.0,NW,5.8,-,N/A,,Mostly Cloudy,320,2013-04-01 01:15:00
8:35 PM,31.1,13.3,48,29.84,10.0,NNW,8.1,-,N/A,,Overcast,330,2013-04-01 01:35:00
8:55 PM,30.4,13.8,50,29.84,10.0,NNW,8.1,-,N/A,,Overcast,340,2013-04-01 01:55:00
9:15 PM,29.8,13.6,51,29.85,10.0,NW,4.6,-,N/A,,Scattered Clouds,320,2013-04-01 02:15:00
9:35 PM,29.5,12.9,50,29.86,10.0,NNW,9.2,-,N/A,,Mostly Cloudy,330,2013-04-01 02:35:00
9:55 PM,28.8,14.2,55,29.87,10.0,North,4.6,-,N/A,,Mostly Cloudy,10,2013-04-01 02:55:00
10:15 PM,28.0,15.6,60,29.88,10.0,NNW,8.1,-,N/A,,Overcast,340,2013-04-01 03:15:00
10:35 PM,27.5,16.0,62,29.89,10.0,North,6.9,-,N/A,,Overcast,350,2013-04-01 03:35:00
10:55 PM,27.5,15.8,61,29.89,10.0,NNW,5.8,-,N/A,,Overcast,340,2013-04-01 03:55:00
11:15 PM,27.5,16.5,63,29.90,10.0,North,12.7,20.7,N/A,,Overcast,350,2013-04-01 04:15:00
11:55 PM,27.0,12.9,56,29.91,10.0,NNW,10.4,-,N/A,,Overcast,340,2013-04-01 04:55:00